SCP
1 0 0 0 0 0 0 0 0 0 0 0 0 0 0 0 0 0 0 0 0 0 0 0 0 0 1 1 1 1 1 1 1 1 1 1 1 1 1 1 1 1 1 2 3 2 1 1 1
0 0 0 0 0 0 0 0 0 0 0 0 0 0 0 0 0 0 0 0 0 0 0 0 0 0 0 0 0 0 1 1 1 1 1 1 1 1 1 1 1 1 1 2 2 2 1 1 1
0 0 0 0 0 0 0 0 0 0 0 0 0 0 0 0 0 0 0 0 0 0 0 0 0 0 0 0 0 0 0 0 0 0 0 0 1 1 1 1 1 1 1 1 1 1 1 1 1
0 0 0 0 0 0 0 0 0 0 0 0 0 0 0 0 0 0 0 0 0 0 0 0 0 0 0 0 0 0 0 0 0 0 0 0 0 1 1 1 1 1 1 1 1 1 1 1 1
0 0 0 0 0 0 0 0 0 0 0 0 0 0 0 0 0 0 0 0 0 0 0 0 0 0 0 0 0 0 0 0 0 0 0 0 0 0 1 1 1 1 1 1 1 1 1 1 1
0 0 0 0 0 0 0 0 0 0 0 0 0 0 0 0 0 0 0 0 0 0 0 0 0 0 0 0 0 0 0 0 0 0 0 0 0 0 0 1 1 1 1 1 1 1 1 1 1
0 0 0 0 0 0 0 0 0 0 0 0 0 0 0 0 0 0 0 0 0 0 0 0 0 0 0 1 1 0 0 0 0 0 0 0 0 0 0 1 1 1 1 1 1 1 1 1 1
0 0 0 0 0 0 0 0 0 0 0 0 0 0 0 0 0 0 0 0 0 0 0 0 0 0 0 1 1 1 1 0 0 0 0 0 0 0 0 0 1 1 1 1 1 1 1 1 1
0 0 0 0 0 0 0 0 0 0 0 0 0 0 0 0 0 0 0 0 0 0 0 0 0 0 0 0 0 1 1 0 0 0 0 0 0 0 0 0 0 0 1 1 1 1 1 1 1
0 0 0 0 0 0 0 0 0 0 0 0 0 0 0 0 0 0 0 0 0 0 0 0 0 0 0 0 0 0 0 0 0 0 0 0 0 0 0 0 0 0 0 1 1 1 1 1 1
0 0 0 0 0 0 0 0 0 0 0 0 0 0 0 0 0 0 0 0 0 0 0 0 0 0 0 0 0 0 0 0 0 0 0 0 0 0 0 0 0 0 0 0 1 1 1 1 1
0 0 0 0 0 0 0 0 0 0 0 0 0 0 0 0 0 0 0 0 0 0 0 0 0 0 0 0 0 0 0 0 0 0 0 0 0 0 0 0 0 0 0 0 0 1 1 0 1
0 0 0 0 0 0 0 0 0 0 0 0 0 0 0 0 0 0 0 0 0 0 0 0 0 0 0 0 0 0 0 0 0 0 0 0 0 0 0 0 0 0 0 0 0 0 0 0 0
0 0 0 0 0 0 0 0 0 0 0 0 0 0 0 0 0 0 0 0 0 0 0 0 0 0 0 0 0 0 0 0 0 0 0 0 0 0 0 0 0 0 0 0 0 0 0 0 0
0 0 0 0 0 0 0 0 0 0 0 0 0 0 0 0 0 0 0 0 0 0 0 0 0 0 0 0 0 0 0 0 0 0 0 0 0 0 0 0 0 0 0 0 0 0 0 0 0
0 0 0 0 0 0 0 0 0 0 0 0 0 0 0 0 0 0 0 0 0 0 0 0 0 0 0 0 0 0 0 0 0 0 0 0 0 0 0 0 0 0 0 0 0 0 0 0 0
0 0 0 0 0 0 0 0 0 0 0 0 0 0 0 0 0 0 0 0 0 0 0 0 0 0 0 0 0 0 0 0 0 0 0 0 0 0 0 0 0 0 0 0 0 0 0 0 0
0 0 0 0 0 0 0 0 0 0 0 0 0 0 0 0 0 0 0 0 0 0 0 0 0 0 0 0 0 0 0 0 0 0 0 0 0 0 0 0 0 0 0 0 0 0 0 0 0
0 0 0 0 0 0 0 0 0 0 0 0 0 0 0 0 0 0 0 0 0 0 0 0 0 0 0 0 0 0 0 0 0 0 0 0 0 0 0 0 0 0 0 0 0 0 0 0 0
0 0 0 0 0 0 0 0 0 0 0 0 0 0 0 0 0 0 0 0 0 0 0 0 0 0 0 0 0 0 0 0 0 0 0 0 0 0 0 0 0 0 0 0 0 0 0 0 0
0 0 0 0 0 0 0 0 0 0 0 0 0 0 0 0 0 0 0 0 0 0 0 0 0 0 0 0 0 0 0 0 0 0 0 0 0 0 0 0 0 0 0 0 0 0 0 0 0
0 0 0 0 0 0 0 0 0 0 0 0 0 0 0 0 0 0 0 0 0 0 0 0 0 0 0 0 0 0 0 0 0 0 0 0 0 0 0 0 0 0 0 0 0 0 0 0 0
0 0 0 0 0 0 0 0 0 0 0 0 0 0 0 0 0 0 0 0 0 0 0 0 0 0 0 0 0 0 0 0 0 0 0 0 0 0 0 0 0 0 0 0 0 0 0 0 0
0 0 0 0 0 0 0 0 0 0 0 0 0 0 0 0 0 0 0 0 0 0 0 0 0 0 0 0 0 0 0 0 0 0 0 0 0 0 0 0 0 0 0 0 0 0 0 0 0
0 0 0 0 0 0 0 0 0 0 0 0 0 0 0 0 0 0 0 0 0 0 0 0 0 0 0 0 0 0 0 0 0 0 0 0 0 0 0 0 0 0 0 0 0 0 0 0 0
0 0 0 0 0 0 0 0 0 0 0 0 0 0 0 0 0 0 0 0 0 0 0 0 0 0 0 0 0 0 0 0 0 0 0 0 0 0 0 0 0 0 0 0 0 0 0 0 0
0 0 0 0 0 0 0 0 0 0 0 0 0 0 0 0 0 0 0 0 0 0 0 0 0 0 0 0 0 0 0 0 0 0 0 0 0 0 0 0 0 0 0 0 0 0 0 0 0
0 0 0 0 0 0 0 0 0 0 0 0 0 0 0 0 0 0 0 0 0 0 0 0 0 0 0 0 0 0 0 0 0 0 0 0 0 0 0 0 0 0 0 0 0 0 0 0 0
0 0 0 0 0 0 0 0 0 0 0 0 0 0 0 0 0 0 0 0 0 0 0 0 0 0 0 0 0 0 0 0 0 0 0 0 0 0 0 0 0 0 0 0 0 0 0 0 0
0 0 0 0 0 0 0 0 0 0 0 0 0 0 0 0 0 0 0 0 0 0 0 0 0 0 0 0 0 0 0 0 0 0 0 0 0 0 0 0 0 0 0 0 0 0 0 0 0
Wind_Speed
4 4 3 3 4 3 1 1 0 1 1 2 2 4 5 3 2 2 0 4 5 5 3 5 7 6 6 6 5 5 4 4 4 3 3 2 2 2 2 2 2 1 1 1 1 1 1 0 1
4 3 3 3 3 2 2 1 0 0 1 1 2 4 5 3 2 4 2 4 6 5 4 4 6 6 6 5 4 4 3 3 2 2 2 1 1 0 0 1 1 1 2 2 1 1 2 1 1
4 3 3 3 2 1 1 1 0 1 0 0 2 3 3 3 3 3 3 7 6 5 4 4 6 6 5 5 4 3 3 2 2 1 0 0 1 1 2 2 2 3 3 3 3 3 3 3 2
3 3 3 3 0 2 2 1 1 1 2 2 3 3 2 2 4 4 7 8 6 4 3 3 6 5 5 4 3 3 2 2 1 1 1 2 2 3 3 3 3 4 4 4 4 4 3 3 3
3 3 3 2 1 2 1 0 1 0 1 2 2 3 2 2 4 8 8 7 6 4 3 3 5 5 5 4 3 2 2 1 1 2 2 3 3 4 4 4 5 5 5 5 5 4 4 4 4
3 3 3 0 2 2 1 0 0 0 1 2 3 3 1 1 5 7 7 6 5 5 4 3 5 5 5 4 3 2 1 1 1 2 3 4 4 5 5 5 5 5 6 5 5 5 5 5 5
3 3 1 1 1 1 1 1 1 1 1 2 4 4 1 2 4 6 6 5 4 3 3 2 1 2 3 3 2 1 1 1 2 3 4 4 5 5 6 5 5 5 5 5 6 5 6 6 6
3 3 1 1 0 1 2 1 1 1 1 2 3 5 4 5 5 6 5 4 3 2 2 2 1 0 0 1 2 1 1 2 3 4 5 5 6 6 7 7 6 6 6 6 6 6 6 7 7
3 4 1 1 1 1 1 2 2 1 2 1 1 3 4 8 8 7 4 2 1 2 2 1 1 1 0 1 2 2 3 4 4 5 7 6 3 4 4 6 7 6 6 6 6 6 6 6 5
3 2 2 1 1 1 1 1 2 2 1 0 1 2 6 9 8 7 6 5 5 4 3 2 2 2 1 1 1 1 2 2 2 2 3 3 2 3 4 6 7 7 6 6 5 5 5 3 1
3 3 2 1 1 1 1 1 2 4 3 5 5 6 8 7 7 7 7 6 6 5 3 3 3 2 2 1 0 1 1 1 2 2 2 2 2 2 3 2 4 5 5 3 4 3 2 1 1
2 1 2 1 1 1 1 1 1 4 7 5 6 9 9 9 9 9 8 6 4 4 4 3 3 3 2 1 0 0 0 1 1 2 2 2 1 2 2 2 2 2 2 2 2 1 2 2 1
2 1 1 1 0 1 1 2 2 5 6 3 6 8 9 10 8 7 6 5 5 5 4 3 3 3 2 1 1 1 1 1 1 1 2 1 1 1 2 2 2 2 2 2 2 2 2 2 1
2 1 1 1 1 1 1 3 2 5 3 5 8 9 9 10 9 6 6 6 6 5 4 3 3 3 3 2 1 1 1 1 1 1 2 2 1 1 1 2 2 2 2 1 1 1 1 1 1
2 1 2 1 1 1 0 4 6 5 4 6 7 8 8 8 7 8 8 7 6 5 4 4 4 3 3 3 2 2 1 1 1 1 2 2 1 1 1 1 2 2 2 2 1 2 1 1 1
2 2 1 2 2 1 2 5 6 3 6 7 7 6 7 7 7 7 6 6 6 5 5 4 4 4 3 3 2 2 2 1 1 1 2 2 2 2 1 1 2 2 2 1 1 1 1 1 1
3 2 1 2 2 2 3 6 5 1 5 7 7 7 7 6 7 7 6 6 6 6 6 5 4 4 3 3 2 2 2 1 1 1 2 2 3 2 1 1 2 2 2 2 2 1 1 1 1
3 2 1 2 2 3 3 7 8 2 5 7 7 7 7 8 9 6 6 6 6 6 6 5 5 4 4 3 2 2 2 1 1 1 2 2 2 2 2 2 2 2 2 2 2 1 1 1 1
4 3 1 2 1 2 4 7 10 4 4 6 7 7 8 9 6 4 5 6 6 5 6 6 5 4 3 2 2 1 0 1 1 1 2 2 2 2 2 2 2 2 2 2 2 1 1 2 1
2 2 0 2 0 1 3 6 7 3 4 6 7 8 8 6 4 5 6 6 7 7 7 6 6 5 4 2 2 1 1 1 1 1 2 2 2 2 2 1 2 2 2 3 2 1 1 1 2
1 1 1 1 3 3 3 7 5 4 3 2 2 4 5 8 9 7 7 7 7 8 9 8 7 5 4 3 2 2 2 2 1 2 2 2 2 2 2 2 1 2 1 2 2 1 1 1 1
1 2 2 1 3 3 3 3 7 6 7 4 2 2 5 6 7 7 7 8 9 9 7 6 6 5 4 4 3 3 2 2 2 1 2 3 2 2 2 2 2 2 1 2 2 1 0 1 1
2 1 2 2 3 3 4 2 7 5 5 6 5 4 4 5 7 8 9 9 7 7 7 6 6 5 4 4 4 3 2 2 1 1 2 2 2 2 2 2 2 2 2 2 2 1 1 1 1
3 5 5 5 5 4 3 1 5 4 4 6 6 5 4 4 5 6 5 5 5 6 6 6 6 5 5 5 4 4 4 3 2 1 1 2 2 2 2 1 1 2 1 2 2 1 1 1 1
4 5 5 6 5 2 3 1 5 5 4 4 6 6 5 3 3 5 6 7 7 7 8 7 7 6 5 5 5 5 5 4 4 3 2 2 2 2 2 1 1 1 2 2 1 1 1 1 1
3 6 6 4 2 3 4 1 6 5 5 3 3 4 4 3 3 5 6 7 7 8 8 8 8 7 6 6 6 5 4 3 3 3 3 3 3 3 2 2 2 2 1 1 1 1 1 1 1
5 3 5 7 3 2 4 6 8 5 7 8 7 7 6 5 4 4 5 5 6 7 8 9 9 7 7 7 6 5 5 4 4 4 3 3 3 2 2 2 2 1 1 1 1 1 1 1 1
5 7 5 5 4 1 4 4 4 6 7 8 8 8 8 7 6 4 3 4 5 6 6 6 7 8 7 6 6 5 5 5 4 3 4 4 3 2 2 2 2 1 1 1 0 0 0 0 0
3 4 6 5 5 6 1 5 4 4 4 6 7 7 8 7 7 5 4 2 2 3 4 6 6 6 6 7 6 5 5 5 4 4 4 4 3 3 3 3 2 2 1 1 0 0 0 0 0
2 5 6 5 2 4 4 6 4 2 3 3 5 7 7 7 6 5 4 3 1 2 3 5 6 7 7 7 6 6 5 5 5 5 5 4 4 4 3 3 3 2 2 2 2 1 1 1 1
Wind_Direction
111 97 83 62 53 46 8 327 317 340 14 1 44 74 91 83 95 130 138 134 134 136 146 148 143 134 125 121 120 120 118 116 110 107 104 99 102 114 132 143 144 149 165 169 147 144 143 143 110
111 91 55 58 76 46 318 304 15 273 159 155 68 75 78 74 80 106 118 141 133 136 132 141 142 132 124 118 115 112 110 107 107 109 103 98 78 76 177 224 215 224 239 236 219 222 225 220 220
107 65 78 71 85 180 242 266 262 338 163 352 60 58 92 122 123 143 158 138 128 130 129 145 142 136 130 123 114 106 97 90 86 84 76 13 323 302 293 283 270 257 253 253 247 250 251 247 237
95 56 62 75 197 233 224 244 104 42 22 47 91 73 69 88 151 152 138 133 130 134 135 153 150 144 134 127 121 114 104 91 62 31 2 337 319 314 305 297 289 278 269 262 258 261 269 272 262
68 80 69 41 287 283 287 16 121 84 31 67 98 98 59 14 118 130 135 140 143 147 147 163 160 151 143 138 135 121 109 83 42 6 350 338 321 308 305 300 295 287 284 277 268 271 276 275 268
65 71 86 208 284 302 326 189 136 93 85 102 110 110 85 86 129 143 144 147 152 155 159 168 172 160 156 151 147 132 103 45 351 340 338 338 331 320 313 301 295 288 284 282 279 274 271 269 266
107 101 130 216 279 325 351 107 124 99 94 153 130 112 120 179 166 148 140 141 145 151 151 160 165 169 173 174 175 161 22 350 337 338 338 335 330 326 320 312 303 295 286 282 279 279 273 266 265
123 102 67 330 245 302 352 37 58 83 143 111 127 147 189 197 153 125 118 122 132 144 162 184 185 137 72 346 287 284 319 344 350 350 346 350 351 344 333 327 315 305 298 291 287 281 275 271 267
101 83 154 233 211 282 351 64 47 23 103 118 168 186 195 141 128 122 119 123 162 194 204 203 201 198 214 271 302 340 342 356 5 3 1 10 3 349 334 328 324 317 310 302 292 288 285 282 281
98 131 209 214 196 247 315 126 138 83 51 205 64 84 120 130 142 151 166 182 196 212 212 200 201 200 204 262 35 8 6 3 7 7 4 1 354 344 348 342 345 342 334 323 312 307 311 319 318
134 169 196 234 243 223 217 201 157 139 224 213 192 166 146 148 158 172 185 193 203 209 208 194 194 187 184 214 39 22 8 1 3 8 6 8 8 355 359 355 354 354 357 357 350 352 352 342 308
135 184 177 206 212 220 197 190 176 193 227 216 185 165 160 166 177 187 193 201 199 196 207 197 180 170 182 175 117 71 41 10 359 355 9 27 14 2 351 353 344 351 352 353 352 340 333 331 315
151 199 209 245 275 277 283 247 231 240 244 198 158 161 173 180 190 199 200 199 197 199 200 189 168 164 158 144 162 120 99 61 19 12 13 40 40 5 353 350 353 346 348 354 342 339 332 325 318
168 162 296 299 336 315 275 278 246 246 187 161 166 179 188 190 192 193 199 203 202 199 192 172 165 160 149 148 147 127 106 85 54 33 18 34 50 22 2 357 354 346 339 333 331 329 324 314 303
111 85 335 288 228 271 28 292 239 230 162 173 185 191 197 203 199 203 204 200 197 189 177 171 170 150 148 147 146 122 113 92 58 31 22 33 39 27 17 7 356 342 337 339 345 343 344 331 320
99 84 348 282 196 229 153 266 266 186 171 192 200 203 207 215 215 216 207 198 185 172 167 178 163 146 147 138 123 113 108 94 57 30 19 21 24 27 25 15 353 341 347 350 342 346 344 336 335
66 126 201 280 205 181 184 260 281 172 181 201 208 212 215 222 228 221 204 192 179 173 166 166 150 150 144 125 106 95 85 72 43 25 20 12 15 19 29 10 344 349 1 357 340 8 348 322 321
171 165 202 247 216 174 223 266 285 258 203 217 218 217 216 223 228 214 192 180 172 166 162 158 148 144 128 105 85 60 50 30 19 13 359 1 5 8 15 7 358 3 8 358 353 354 359 317 312
137 136 195 268 215 182 248 274 285 275 224 229 227 219 220 228 229 197 180 167 160 160 163 164 157 157 143 128 126 120 180 324 338 332 337 349 356 359 10 6 2 6 4 339 337 347 8 357 345
112 112 301 310 266 196 291 291 291 273 232 228 226 221 218 216 210 199 183 174 175 175 176 174 173 171 174 155 146 154 155 211 268 312 333 344 355 349 350 11 359 354 353 355 358 8 16 1 20
87 169 195 328 11 32 355 338 338 330 322 294 237 217 208 208 208 201 191 189 184 185 185 186 182 177 176 150 112 84 59 29 3 338 326 332 344 344 349 352 351 350 359 348 341 350 52 17 7
264 239 186 67 59 354 33 346 316 329 338 342 317 246 225 218 208 200 194 193 196 195 184 182 176 176 175 161 160 155 161 192 232 248 286 315 337 340 339 339 343 344 350 346 327 3 15 103 43
204 44 101 82 100 38 21 62 304 344 347 327 315 280 249 225 210 206 202 200 196 183 177 177 171 178 178 174 173 167 174 201 236 269 299 319 330 330 328 334 339 335 340 346 348 359 29 88 106
132 68 59 49 66 50 343 77 302 305 295 310 320 312 278 246 224 218 207 187 182 172 172 171 174 187 183 180 179 184 190 192 206 246 276 301 311 312 314 324 332 320 332 344 347 0 40 68 87
92 85 43 24 28 296 311 108 262 279 290 285 302 308 302 274 228 216 203 195 188 181 180 178 180 193 189 187 192 198 200 195 205 218 230 249 277 285 292 314 313 315 321 330 354 20 30 52 79
140 129 140 148 179 298 351 324 269 284 308 318 321 323 330 313 258 232 220 207 199 193 185 182 189 196 190 194 202 200 200 198 211 216 216 228 236 252 270 282 291 309 325 348 22 26 14 52 65
124 112 145 120 112 41 333 321 317 342 357 360 359 355 340 322 303 269 245 220 207 200 196 193 193 197 197 199 197 199 204 205 215 220 222 233 240 249 251 258 276 302 323 348 49 40 9 37 45
114 135 97 96 114 58 333 326 294 322 332 340 346 341 334 338 332 314 276 240 221 210 201 193 196 203 201 196 198 202 206 211 214 212 224 234 242 245 250 251 258 271 293 308 54 52 351 59 2
102 84 93 94 130 136 175 281 253 272 303 318 324 332 331 333 333 329 321 287 234 211 197 197 201 204 203 202 202 204 206 208 207 213 226 230 235 233 236 236 236 244 246 249 231 252 174 141 10
135 145 140 134 160 140 150 262 296 299 316 329 334 339 343 345 342 343 347 354 341 239 219 211 207 208 211 204 201 207 206 201 207 221 228 223 230 234 231 227 228 237 234 223 217 232 209 193 195